LEMUR-2-JEFF

Last updated on March 25, 2017, 12:15 a.m. UTC

1 41490U 98067JL  17082.86138582  .15219034  12544-4  30912-3 0  9990
2 41490  51.5977  64.5171 0003073 162.0648 198.0222 16.46983386 48626

Satellite is not in orbit.